Year,Month,Day,Hour,Minute,Value (Times are PST for temperature in C)
2014,08,04,00,00,18.70
2014,08,04,00,01,18.70
2014,08,04,00,02,18.70
2014,08,04,00,03,18.70
2014,08,04,00,04,18.70
2014,08,04,00,05,18.70
2014,08,04,00,06,18.60
2014,08,04,00,07,18.60
2014,08,04,00,08,18.60
2014,08,04,00,09,18.60
2014,08,04,00,10,18.60
2014,08,04,00,11,18.60
2014,08,04,00,12,18.60
2014,08,04,00,13,18.60
2014,08,04,00,14,18.60
2014,08,04,00,15,18.60
2014,08,04,00,16,18.60
2014,08,04,00,17,18.50
2014,08,04,00,18,18.50
2014,08,04,00,19,18.50
2014,08,04,00,20,18.50
2014,08,04,00,21,18.40
2014,08,04,00,22,18.40
2014,08,04,00,23,18.40
2014,08,04,00,24,18.40
2014,08,04,00,25,18.40
2014,08,04,00,26,18.40
2014,08,04,00,27,18.40
2014,08,04,00,28,18.40
2014,08,04,00,29,18.30
2014,08,04,00,30,18.30
2014,08,04,00,31,18.30
2014,08,04,00,32,18.30
2014,08,04,00,33,18.30
2014,08,04,00,34,18.30
2014,08,04,00,35,18.30
2014,08,04,00,36,18.30
2014,08,04,00,37,18.20
2014,08,04,00,38,18.20
2014,08,04,00,39,18.20
2014,08,04,00,40,18.20
2014,08,04,00,41,18.20
2014,08,04,00,42,18.20
2014,08,04,00,43,18.10
2014,08,04,00,44,18.10
2014,08,04,00,45,18.10
2014,08,04,00,46,18.10
2014,08,04,00,47,18.10
2014,08,04,00,48,18.10
2014,08,04,00,49,18.10
2014,08,04,00,50,18.10
2014,08,04,00,51,18.00
2014,08,04,00,52,18.00
2014,08,04,00,53,18.00
2014,08,04,00,54,18.00
2014,08,04,00,55,18.00
2014,08,04,00,56,18.00
2014,08,04,00,57,18.00
2014,08,04,00,58,18.00
2014,08,04,00,59,18.00
2014,08,04,01,00,17.90
2014,08,04,01,01,17.90
2014,08,04,01,02,17.90
2014,08,04,01,03,17.90
2014,08,04,01,04,17.90
2014,08,04,01,05,17.80
2014,08,04,01,06,17.80
2014,08,04,01,07,17.80
2014,08,04,01,08,17.80
2014,08,04,01,09,17.80
2014,08,04,01,10,17.80
2014,08,04,01,11,17.80
2014,08,04,01,12,17.70
2014,08,04,01,13,17.70
2014,08,04,01,14,17.70
2014,08,04,01,15,17.70
2014,08,04,01,16,17.70
2014,08,04,01,17,17.70
2014,08,04,01,18,17.70
2014,08,04,01,19,17.70
2014,08,04,01,20,17.70
2014,08,04,01,21,17.60
2014,08,04,01,22,17.60
2014,08,04,01,23,17.60
2014,08,04,01,24,17.60
2014,08,04,01,25,17.60
2014,08,04,01,26,17.60
2014,08,04,01,27,17.50
2014,08,04,01,28,17.50
2014,08,04,01,29,17.50
2014,08,04,01,30,17.40
2014,08,04,01,31,17.40
2014,08,04,01,32,17.40
2014,08,04,01,33,17.40
2014,08,04,01,34,17.40
2014,08,04,01,35,17.30
2014,08,04,01,36,17.30
2014,08,04,01,37,17.30
2014,08,04,01,38,17.30
2014,08,04,01,39,17.30
2014,08,04,01,40,17.30
2014,08,04,01,41,17.20
2014,08,04,01,42,17.20
2014,08,04,01,43,17.20
2014,08,04,01,44,17.20
2014,08,04,01,45,17.20
2014,08,04,01,46,17.20
2014,08,04,01,47,17.20
2014,08,04,01,48,17.10
2014,08,04,01,49,17.10
2014,08,04,01,50,17.10
2014,08,04,01,51,17.10
2014,08,04,01,52,17.10
2014,08,04,01,53,17.00
2014,08,04,01,54,17.00
2014,08,04,01,55,17.00
2014,08,04,01,56,16.90
2014,08,04,01,57,16.90
2014,08,04,01,58,16.90
2014,08,04,01,59,16.80
2014,08,04,02,00,16.80
2014,08,04,02,01,16.80
2014,08,04,02,02,16.70
2014,08,04,02,03,16.70
2014,08,04,02,04,16.70
2014,08,04,02,05,16.60
2014,08,04,02,06,16.60
2014,08,04,02,07,16.60
2014,08,04,02,08,16.60
2014,08,04,02,09,16.60
2014,08,04,02,10,16.60
2014,08,04,02,11,16.60
2014,08,04,02,12,16.60
2014,08,04,02,13,16.60
2014,08,04,02,14,16.50
2014,08,04,02,15,16.50
2014,08,04,02,16,16.50
2014,08,04,02,17,16.50
2014,08,04,02,18,16.40
2014,08,04,02,19,16.40
2014,08,04,02,20,16.40
2014,08,04,02,21,16.40
2014,08,04,02,22,16.40
2014,08,04,02,23,16.40
2014,08,04,02,24,16.30
2014,08,04,02,25,16.30
2014,08,04,02,26,16.30
2014,08,04,02,27,16.30
2014,08,04,02,28,16.30
2014,08,04,02,29,16.30
2014,08,04,02,30,16.20
2014,08,04,02,31,16.20
2014,08,04,02,32,16.20
2014,08,04,02,33,16.20
2014,08,04,02,34,16.20
2014,08,04,02,35,16.20
2014,08,04,02,36,16.20
2014,08,04,02,37,16.20
2014,08,04,02,38,16.20
2014,08,04,02,39,16.20
2014,08,04,02,40,16.20
2014,08,04,02,41,16.20
2014,08,04,02,42,16.20
2014,08,04,02,43,16.20
2014,08,04,02,44,16.20
2014,08,04,02,45,16.20
2014,08,04,02,46,16.20
2014,08,04,02,47,16.20
2014,08,04,02,48,16.20
2014,08,04,02,49,16.20
2014,08,04,02,50,16.20
2014,08,04,02,51,16.20
2014,08,04,02,52,16.20
2014,08,04,02,53,16.20
2014,08,04,02,54,16.20
2014,08,04,02,55,16.20
2014,08,04,02,56,16.20
2014,08,04,02,57,16.20
2014,08,04,02,58,16.20
2014,08,04,02,59,16.20
2014,08,04,03,00,16.30
2014,08,04,03,01,16.30
2014,08,04,03,02,16.30
2014,08,04,03,03,16.30
2014,08,04,03,04,16.30
2014,08,04,03,05,16.30
2014,08,04,03,06,16.20
2014,08,04,03,07,16.20
2014,08,04,03,08,16.20
2014,08,04,03,09,16.20
2014,08,04,03,10,16.20
2014,08,04,03,11,16.20
2014,08,04,03,12,16.20
2014,08,04,03,13,16.10
2014,08,04,03,14,16.10
2014,08,04,03,15,16.10
2014,08,04,03,16,16.10
2014,08,04,03,17,16.00
2014,08,04,03,18,16.00
2014,08,04,03,19,16.00
2014,08,04,03,20,15.90
2014,08,04,03,21,15.90
2014,08,04,03,22,15.90
2014,08,04,03,23,15.90
2014,08,04,03,24,15.80
2014,08,04,03,25,15.80
2014,08,04,03,26,15.80
2014,08,04,03,27,15.80
2014,08,04,03,28,15.80
2014,08,04,03,29,15.80
2014,08,04,03,30,15.80
2014,08,04,03,31,15.80
2014,08,04,03,32,15.80
2014,08,04,03,33,15.70
2014,08,04,03,34,15.70
2014,08,04,03,35,15.70
2014,08,04,03,36,15.70
2014,08,04,03,37,15.70
2014,08,04,03,38,15.60
2014,08,04,03,39,15.60
2014,08,04,03,40,15.60
2014,08,04,03,41,15.50
2014,08,04,03,42,15.50
2014,08,04,03,43,15.40
2014,08,04,03,44,15.40
2014,08,04,03,45,15.40
2014,08,04,03,46,15.40
2014,08,04,03,47,15.30
2014,08,04,03,48,15.30
2014,08,04,03,49,15.30
2014,08,04,03,50,15.30
2014,08,04,03,51,15.30
2014,08,04,03,52,15.30
2014,08,04,03,53,15.30
2014,08,04,03,54,15.30
2014,08,04,03,55,15.20
2014,08,04,03,56,15.20
2014,08,04,03,57,15.20
2014,08,04,03,58,15.20
2014,08,04,03,59,15.20
2014,08,04,04,00,15.20
2014,08,04,04,01,15.20
2014,08,04,04,02,15.20
2014,08,04,04,03,15.20
2014,08,04,04,04,15.20
2014,08,04,04,05,15.20
2014,08,04,04,06,15.20
2014,08,04,04,07,15.20
2014,08,04,04,08,15.20
2014,08,04,04,09,15.20
2014,08,04,04,10,15.20
2014,08,04,04,11,15.10
2014,08,04,04,12,15.10
2014,08,04,04,13,15.10
2014,08,04,04,14,15.10
2014,08,04,04,15,15.10
2014,08,04,04,16,15.10
2014,08,04,04,17,15.10
2014,08,04,04,18,15.10
2014,08,04,04,19,15.10
2014,08,04,04,20,15.10
2014,08,04,04,21,15.10
2014,08,04,04,22,15.10
2014,08,04,04,23,15.10
2014,08,04,04,24,15.10
2014,08,04,04,25,15.10
2014,08,04,04,26,15.10
2014,08,04,04,27,15.10
2014,08,04,04,28,15.10
2014,08,04,04,29,15.00
2014,08,04,04,30,15.00
2014,08,04,04,31,15.00
2014,08,04,04,32,15.00
2014,08,04,04,33,14.90
2014,08,04,04,34,14.90
2014,08,04,04,35,14.90
2014,08,04,04,36,14.90
2014,08,04,04,37,14.90
2014,08,04,04,38,14.90
2014,08,04,04,39,14.90
2014,08,04,04,40,14.80
2014,08,04,04,41,14.80
2014,08,04,04,42,14.80
2014,08,04,04,43,14.80
2014,08,04,04,44,14.80
2014,08,04,04,45,14.80
2014,08,04,04,46,14.80
2014,08,04,04,47,14.80
2014,08,04,04,48,14.80
2014,08,04,04,49,14.80
2014,08,04,04,50,14.80
2014,08,04,04,51,14.80
2014,08,04,04,52,14.80
2014,08,04,04,53,14.80
2014,08,04,04,54,14.80
2014,08,04,04,55,14.80
2014,08,04,04,56,14.70
2014,08,04,04,57,14.70
2014,08,04,04,58,14.70
2014,08,04,04,59,14.60
2014,08,04,05,00,14.60
2014,08,04,05,01,14.60
2014,08,04,05,02,14.60
2014,08,04,05,03,14.60
2014,08,04,05,04,14.60
2014,08,04,05,05,14.50
2014,08,04,05,06,14.50
2014,08,04,05,07,14.50
2014,08,04,05,08,14.50
2014,08,04,05,09,14.50
2014,08,04,05,10,14.50
2014,08,04,05,11,14.60
2014,08,04,05,12,14.60
2014,08,04,05,13,14.60
2014,08,04,05,14,14.50
2014,08,04,05,15,14.50
2014,08,04,05,16,14.50
2014,08,04,05,17,14.40
2014,08,04,05,18,14.40
2014,08,04,05,19,14.40
2014,08,04,05,20,14.40
2014,08,04,05,21,14.30
2014,08,04,05,22,14.30
2014,08,04,05,23,14.30
2014,08,04,05,24,14.30
2014,08,04,05,25,14.30
2014,08,04,05,26,14.30
2014,08,04,05,27,14.30
2014,08,04,05,28,14.30
2014,08,04,05,29,14.30
2014,08,04,05,30,14.30
2014,08,04,05,31,14.30
2014,08,04,05,32,14.30
2014,08,04,05,33,14.30
2014,08,04,05,34,14.30
2014,08,04,05,35,14.30
2014,08,04,05,36,14.20
2014,08,04,05,37,14.20
2014,08,04,05,38,14.20
2014,08,04,05,39,14.20
2014,08,04,05,40,14.20
2014,08,04,05,41,14.10
2014,08,04,05,42,14.10
2014,08,04,05,43,14.10
2014,08,04,05,44,14.10
2014,08,04,05,45,14.10
2014,08,04,05,46,14.10
2014,08,04,05,47,14.10
2014,08,04,05,48,14.10
2014,08,04,05,49,14.10
2014,08,04,05,50,14.10
2014,08,04,05,51,14.10
2014,08,04,05,52,14.10
2014,08,04,05,53,14.10
2014,08,04,05,54,14.10
2014,08,04,05,55,14.10
2014,08,04,05,56,14.10
2014,08,04,05,57,14.10
2014,08,04,05,58,14.10
2014,08,04,05,59,14.10
2014,08,04,06,00,14.10
2014,08,04,06,01,14.10
2014,08,04,06,02,14.10
2014,08,04,06,03,14.10
2014,08,04,06,04,14.10
2014,08,04,06,05,14.00
2014,08,04,06,06,14.00
2014,08,04,06,07,14.00
2014,08,04,06,08,14.00
2014,08,04,06,09,14.00
2014,08,04,06,10,13.90
2014,08,04,06,11,13.90
2014,08,04,06,12,13.90
2014,08,04,06,13,13.90
2014,08,04,06,14,13.90
2014,08,04,06,15,13.90
2014,08,04,06,16,13.90
2014,08,04,06,17,13.90
2014,08,04,06,18,13.90
2014,08,04,06,19,13.90
2014,08,04,06,20,13.80
2014,08,04,06,21,13.80
2014,08,04,06,22,13.80
2014,08,04,06,23,13.80
2014,08,04,06,24,13.80
2014,08,04,06,25,13.80
2014,08,04,06,26,13.80
2014,08,04,06,27,13.80
2014,08,04,06,28,13.70
2014,08,04,06,29,13.70
2014,08,04,06,30,13.70
2014,08,04,06,31,13.70
2014,08,04,06,32,13.70
2014,08,04,06,33,13.70
2014,08,04,06,34,13.70
2014,08,04,06,35,13.70
2014,08,04,06,36,13.70
2014,08,04,06,37,13.70
2014,08,04,06,38,13.60
2014,08,04,06,39,13.70
2014,08,04,06,40,13.70
2014,08,04,06,41,13.60
2014,08,04,06,42,13.70
2014,08,04,06,43,13.70
2014,08,04,06,44,13.70
2014,08,04,06,45,13.80
2014,08,04,06,46,13.80
2014,08,04,06,47,13.80
2014,08,04,06,48,13.80
2014,08,04,06,49,13.80
2014,08,04,06,50,13.80
2014,08,04,06,51,13.80
2014,08,04,06,52,13.80
2014,08,04,06,53,13.80
2014,08,04,06,54,13.80
2014,08,04,06,55,13.90
2014,08,04,06,56,13.90
2014,08,04,06,57,13.90
2014,08,04,06,58,13.90
2014,08,04,06,59,14.00
2014,08,04,07,00,14.00
2014,08,04,07,01,14.10
2014,08,04,07,02,14.10
2014,08,04,07,03,14.20
2014,08,04,07,04,14.20
2014,08,04,07,05,14.20
2014,08,04,07,06,14.30
2014,08,04,07,07,14.30
2014,08,04,07,08,14.40
2014,08,04,07,09,14.50
2014,08,04,07,10,14.60
2014,08,04,07,11,14.60
2014,08,04,07,12,14.70
2014,08,04,07,13,14.80
2014,08,04,07,14,14.90
2014,08,04,07,15,14.90
2014,08,04,07,16,15.10
2014,08,04,07,17,15.20
2014,08,04,07,18,15.30
2014,08,04,07,19,15.40
2014,08,04,07,20,15.50
2014,08,04,07,21,15.70
2014,08,04,07,22,15.80
2014,08,04,07,23,15.90
2014,08,04,07,24,16.00
2014,08,04,07,25,16.20
2014,08,04,07,26,16.30
2014,08,04,07,27,16.40
2014,08,04,07,28,16.60
2014,08,04,07,29,16.70
2014,08,04,07,30,16.90
2014,08,04,07,31,17.00
2014,08,04,07,32,17.10
2014,08,04,07,33,17.20
2014,08,04,07,34,17.30
2014,08,04,07,35,17.30
2014,08,04,07,36,17.40
2014,08,04,07,37,17.50
2014,08,04,07,38,17.70
2014,08,04,07,39,17.80
2014,08,04,07,40,18.00
2014,08,04,07,41,18.10
2014,08,04,07,42,18.20
2014,08,04,07,43,18.40
2014,08,04,07,44,18.60
2014,08,04,07,45,18.70
2014,08,04,07,46,18.90
2014,08,04,07,47,19.10
2014,08,04,07,48,19.20
2014,08,04,07,49,19.40
2014,08,04,07,50,19.50
2014,08,04,07,51,19.60
2014,08,04,07,52,19.60
2014,08,04,07,53,19.70
2014,08,04,07,54,19.80
2014,08,04,07,55,19.90
2014,08,04,07,56,20.00
2014,08,04,07,57,20.00
2014,08,04,07,58,20.20
2014,08,04,07,59,20.20
2014,08,04,08,00,20.30
2014,08,04,08,01,20.40
2014,08,04,08,02,20.40
2014,08,04,08,03,20.50
2014,08,04,08,04,20.50
2014,08,04,08,05,20.60
2014,08,04,08,06,20.60
2014,08,04,08,07,20.60
2014,08,04,08,08,20.70
2014,08,04,08,09,20.70
2014,08,04,08,10,20.80
2014,08,04,08,11,20.80
2014,08,04,08,12,20.90
2014,08,04,08,13,20.90
2014,08,04,08,14,21.00
2014,08,04,08,15,21.10
2014,08,04,08,16,21.10
2014,08,04,08,17,21.20
2014,08,04,08,18,21.20
2014,08,04,08,19,21.30
2014,08,04,08,20,21.40
2014,08,04,08,21,21.50
2014,08,04,08,22,21.60
2014,08,04,08,23,21.70
2014,08,04,08,24,21.80
2014,08,04,08,25,21.80
2014,08,04,08,26,21.90
2014,08,04,08,27,22.00
2014,08,04,08,28,22.00
2014,08,04,08,29,22.10
2014,08,04,08,30,22.10
2014,08,04,08,31,22.20
2014,08,04,08,32,22.20
2014,08,04,08,33,22.30
2014,08,04,08,34,22.30
2014,08,04,08,35,22.30
2014,08,04,08,36,22.40
2014,08,04,08,37,22.40
2014,08,04,08,38,22.50
2014,08,04,08,39,22.60
2014,08,04,08,40,22.60
2014,08,04,08,41,22.70
2014,08,04,08,42,22.80
2014,08,04,08,43,22.80
2014,08,04,08,44,22.80
2014,08,04,08,45,22.70
2014,08,04,08,46,22.70
2014,08,04,08,47,22.70
2014,08,04,08,48,22.70
2014,08,04,08,49,22.70
2014,08,04,08,50,22.70
2014,08,04,08,51,22.70
2014,08,04,08,52,22.80
2014,08,04,08,53,22.80
2014,08,04,08,54,22.80
2014,08,04,08,55,22.80
2014,08,04,08,56,22.80
2014,08,04,08,57,22.80
2014,08,04,08,58,22.80
2014,08,04,08,59,22.80
2014,08,04,09,00,22.80
2014,08,04,09,01,22.80
2014,08,04,09,02,22.80
2014,08,04,09,03,22.80
2014,08,04,09,04,22.70
2014,08,04,09,05,22.60
2014,08,04,09,06,22.60
2014,08,04,09,07,22.60
2014,08,04,09,08,22.60
2014,08,04,09,09,22.60
2014,08,04,09,10,22.60
2014,08,04,09,11,22.50
2014,08,04,09,12,22.50
2014,08,04,09,13,22.50
2014,08,04,09,14,22.50
2014,08,04,09,15,22.50
2014,08,04,09,16,22.50
2014,08,04,09,17,22.60
2014,08,04,09,18,22.60
2014,08,04,09,19,22.60
2014,08,04,09,20,22.60
2014,08,04,09,21,22.70
2014,08,04,09,22,22.70
2014,08,04,09,23,22.80
2014,08,04,09,24,22.80
2014,08,04,09,25,22.90
2014,08,04,09,26,22.90
2014,08,04,09,27,23.00
2014,08,04,09,28,23.00
2014,08,04,09,29,23.00
2014,08,04,09,30,23.00
2014,08,04,09,31,23.10
2014,08,04,09,32,23.10
2014,08,04,09,33,23.10
2014,08,04,09,34,23.20
2014,08,04,09,35,23.30
2014,08,04,09,36,23.30
2014,08,04,09,37,23.30
2014,08,04,09,38,23.40
2014,08,04,09,39,23.40
2014,08,04,09,40,23.50
2014,08,04,09,41,23.60
2014,08,04,09,42,23.60
2014,08,04,09,43,23.70
2014,08,04,09,44,23.70
2014,08,04,09,45,23.60
2014,08,04,09,46,23.50
2014,08,04,09,47,23.50
2014,08,04,09,48,23.60
2014,08,04,09,49,23.60
2014,08,04,09,50,23.70
2014,08,04,09,51,23.70
2014,08,04,09,52,23.70
2014,08,04,09,53,23.60
2014,08,04,09,54,23.60
2014,08,04,09,55,23.60
2014,08,04,09,56,23.60
2014,08,04,09,57,23.70
2014,08,04,09,58,23.60
2014,08,04,09,59,23.60
2014,08,04,10,00,23.60
2014,08,04,10,01,23.60
2014,08,04,10,02,23.60
2014,08,04,10,03,23.60
2014,08,04,10,04,23.60
2014,08,04,10,05,23.60
2014,08,04,10,06,23.70
2014,08,04,10,07,23.80
2014,08,04,10,08,23.80
2014,08,04,10,09,23.80
2014,08,04,10,10,23.80
2014,08,04,10,11,23.80
2014,08,04,10,12,23.80
2014,08,04,10,13,23.70
2014,08,04,10,14,23.70
2014,08,04,10,15,23.60
2014,08,04,10,16,23.60
2014,08,04,10,17,23.60
2014,08,04,10,18,23.60
2014,08,04,10,19,23.70
2014,08,04,10,20,23.90
2014,08,04,10,21,24.10
2014,08,04,10,22,24.20
2014,08,04,10,23,24.30
2014,08,04,10,24,24.30
2014,08,04,10,25,24.30
2014,08,04,10,26,24.30
2014,08,04,10,27,24.30
2014,08,04,10,28,24.30
2014,08,04,10,29,24.30
2014,08,04,10,30,24.30
2014,08,04,10,31,24.30
2014,08,04,10,32,24.40
2014,08,04,10,33,24.60
2014,08,04,10,34,24.70
2014,08,04,10,35,24.80
2014,08,04,10,36,24.80
2014,08,04,10,37,24.70
2014,08,04,10,38,24.70
2014,08,04,10,39,24.60
2014,08,04,10,40,24.60
2014,08,04,10,41,24.50
2014,08,04,10,42,24.40
2014,08,04,10,43,24.30
2014,08,04,10,44,24.30
2014,08,04,10,45,24.30
2014,08,04,10,46,24.30
2014,08,04,10,47,24.20
2014,08,04,10,48,24.30
2014,08,04,10,49,24.30
2014,08,04,10,50,24.30
2014,08,04,10,51,24.20
2014,08,04,10,52,24.20
2014,08,04,10,53,24.20
2014,08,04,10,54,24.20
2014,08,04,10,55,24.20
2014,08,04,10,56,24.20
2014,08,04,10,57,24.30
2014,08,04,10,58,24.30
2014,08,04,10,59,24.30
2014,08,04,11,00,24.30
2014,08,04,11,01,24.40
2014,08,04,11,02,24.40
2014,08,04,11,03,24.40
2014,08,04,11,04,24.40
2014,08,04,11,05,24.50
2014,08,04,11,06,24.60
2014,08,04,11,07,24.60
2014,08,04,11,08,24.60
2014,08,04,11,09,24.70
2014,08,04,11,10,24.70
2014,08,04,11,11,24.80
2014,08,04,11,12,24.80
2014,08,04,11,13,24.90
2014,08,04,11,14,24.90
2014,08,04,11,15,25.00
2014,08,04,11,16,25.00
2014,08,04,11,17,24.90
2014,08,04,11,18,24.90
2014,08,04,11,19,24.80
2014,08,04,11,20,24.80
2014,08,04,11,21,24.70
2014,08,04,11,22,24.70
2014,08,04,11,23,24.70
2014,08,04,11,24,24.70
2014,08,04,11,25,24.60
2014,08,04,11,26,24.60
2014,08,04,11,27,24.50
2014,08,04,11,28,24.50
2014,08,04,11,29,24.50
2014,08,04,11,30,24.50
2014,08,04,11,31,24.50
2014,08,04,11,32,24.50
2014,08,04,11,33,24.50
2014,08,04,11,34,24.50
2014,08,04,11,35,24.50
2014,08,04,11,36,24.60
2014,08,04,11,37,24.60
2014,08,04,11,38,24.60
2014,08,04,11,39,24.70
2014,08,04,11,40,24.70
2014,08,04,11,41,24.80
2014,08,04,11,42,24.90
2014,08,04,11,43,25.00
2014,08,04,11,44,25.10
2014,08,04,11,45,25.10
2014,08,04,11,46,25.10
2014,08,04,11,47,25.00
2014,08,04,11,48,25.00
2014,08,04,11,49,25.10
2014,08,04,11,50,25.10
2014,08,04,11,51,25.20
2014,08,04,11,52,25.20
2014,08,04,11,53,25.20
2014,08,04,11,54,25.20
2014,08,04,11,55,25.10
2014,08,04,11,56,25.10
2014,08,04,11,57,25.10
2014,08,04,11,58,25.20
2014,08,04,11,59,25.10
2014,08,04,12,00,25.10
2014,08,04,12,01,25.10
2014,08,04,12,02,25.10
2014,08,04,12,03,25.10
2014,08,04,12,04,25.10
2014,08,04,12,05,25.10
2014,08,04,12,06,25.10
2014,08,04,12,07,25.00
2014,08,04,12,08,25.00
2014,08,04,12,09,25.00
2014,08,04,12,10,24.90
2014,08,04,12,11,24.90
2014,08,04,12,12,24.90
2014,08,04,12,13,25.00
2014,08,04,12,14,25.10
2014,08,04,12,15,25.10
2014,08,04,12,16,25.10
2014,08,04,12,17,25.10
2014,08,04,12,18,25.10
2014,08,04,12,19,25.10
2014,08,04,12,20,25.10
2014,08,04,12,21,25.00
2014,08,04,12,22,24.90
2014,08,04,12,23,24.90
2014,08,04,12,24,24.90
2014,08,04,12,25,24.90
2014,08,04,12,26,25.00
2014,08,04,12,27,25.00
2014,08,04,12,28,25.10
2014,08,04,12,29,25.20
2014,08,04,12,30,25.30
2014,08,04,12,31,25.20
2014,08,04,12,32,25.20
2014,08,04,12,33,25.20
2014,08,04,12,34,25.10
2014,08,04,12,35,25.20
2014,08,04,12,36,25.20
2014,08,04,12,37,25.10
2014,08,04,12,38,25.00
2014,08,04,12,39,25.00
2014,08,04,12,40,25.00
2014,08,04,12,41,25.00
2014,08,04,12,42,25.10
2014,08,04,12,43,25.20
2014,08,04,12,44,25.30
2014,08,04,12,45,25.40
2014,08,04,12,46,25.50
2014,08,04,12,47,25.50
2014,08,04,12,48,25.60
2014,08,04,12,49,25.60
2014,08,04,12,50,25.70
2014,08,04,12,51,25.70
2014,08,04,12,52,25.70
2014,08,04,12,53,25.70
2014,08,04,12,54,25.70
2014,08,04,12,55,25.70
2014,08,04,12,56,25.80
2014,08,04,12,57,25.80
2014,08,04,12,58,25.80
2014,08,04,12,59,25.90
2014,08,04,13,00,25.90
2014,08,04,13,01,26.00
2014,08,04,13,02,25.90
2014,08,04,13,03,25.90
2014,08,04,13,04,25.90
2014,08,04,13,05,25.90
2014,08,04,13,06,25.90
2014,08,04,13,07,26.00
2014,08,04,13,08,26.10
2014,08,04,13,09,26.20
2014,08,04,13,10,26.30
2014,08,04,13,11,26.40
2014,08,04,13,12,26.40
2014,08,04,13,13,26.40
2014,08,04,13,14,26.40
2014,08,04,13,15,26.40
2014,08,04,13,16,26.40
2014,08,04,13,17,26.40
2014,08,04,13,18,26.30
2014,08,04,13,19,26.30
2014,08,04,13,20,26.20
2014,08,04,13,21,26.30
2014,08,04,13,22,26.30
2014,08,04,13,23,26.40
2014,08,04,13,24,26.40
2014,08,04,13,25,26.50
2014,08,04,13,26,26.60
2014,08,04,13,27,26.60
2014,08,04,13,28,26.60
2014,08,04,13,29,26.60
2014,08,04,13,30,26.60
2014,08,04,13,31,26.70
2014,08,04,13,32,26.70
2014,08,04,13,33,26.70
2014,08,04,13,34,26.80
2014,08,04,13,35,26.80
2014,08,04,13,36,26.90
2014,08,04,13,37,27.00
2014,08,04,13,38,27.10
2014,08,04,13,39,27.10
2014,08,04,13,40,27.20
2014,08,04,13,41,27.20
2014,08,04,13,42,27.30
2014,08,04,13,43,27.30
2014,08,04,13,44,27.40
2014,08,04,13,45,27.40
2014,08,04,13,46,27.40
2014,08,04,13,47,27.40
2014,08,04,13,48,27.50
2014,08,04,13,49,27.50
2014,08,04,13,50,27.50
2014,08,04,13,51,27.60
2014,08,04,13,52,27.70
2014,08,04,13,53,27.80
2014,08,04,13,54,27.90
2014,08,04,13,55,27.90
2014,08,04,13,56,28.00
2014,08,04,13,57,28.00
2014,08,04,13,58,28.10
2014,08,04,13,59,28.20
2014,08,04,14,00,28.20
2014,08,04,14,01,28.20
2014,08,04,14,02,28.20
2014,08,04,14,03,28.20
2014,08,04,14,04,28.10
2014,08,04,14,05,28.10
2014,08,04,14,06,28.20
2014,08,04,14,07,28.20
2014,08,04,14,08,28.30
2014,08,04,14,09,28.30
2014,08,04,14,10,28.30
2014,08,04,14,11,28.40
2014,08,04,14,12,28.40
2014,08,04,14,13,28.40
2014,08,04,14,14,28.50
2014,08,04,14,15,28.60
2014,08,04,14,16,28.80
2014,08,04,14,17,28.90
2014,08,04,14,18,29.00
2014,08,04,14,19,29.10
2014,08,04,14,20,29.10
2014,08,04,14,21,29.20
2014,08,04,14,22,29.20
2014,08,04,14,23,29.20
2014,08,04,14,24,29.20
2014,08,04,14,25,29.30
2014,08,04,14,26,29.50
2014,08,04,14,27,29.70
2014,08,04,14,28,29.80
2014,08,04,14,29,29.90
2014,08,04,14,30,30.00
2014,08,04,14,31,30.10
2014,08,04,14,32,30.20
2014,08,04,14,33,30.20
2014,08,04,14,34,30.20
2014,08,04,14,35,30.10
2014,08,04,14,36,30.00
2014,08,04,14,37,30.00
2014,08,04,14,38,30.10
2014,08,04,14,39,30.10
2014,08,04,14,40,30.20
2014,08,04,14,41,30.20
2014,08,04,14,42,30.20
2014,08,04,14,43,30.10
2014,08,04,14,44,30.00
2014,08,04,14,45,29.80
2014,08,04,14,46,29.70
2014,08,04,14,47,29.70
2014,08,04,14,48,29.60
2014,08,04,14,49,29.60
2014,08,04,14,50,29.50
2014,08,04,14,51,29.40
2014,08,04,14,52,29.30
2014,08,04,14,53,29.20
2014,08,04,14,54,29.20
2014,08,04,14,55,29.10
2014,08,04,14,56,29.10
2014,08,04,14,57,29.10
2014,08,04,14,58,29.20
2014,08,04,14,59,29.20
2014,08,04,15,00,29.20
2014,08,04,15,01,29.30
2014,08,04,15,02,29.40
2014,08,04,15,03,29.40
2014,08,04,15,04,29.40
2014,08,04,15,05,29.40
2014,08,04,15,06,29.40
2014,08,04,15,07,29.40
2014,08,04,15,08,29.40
2014,08,04,15,09,29.40
2014,08,04,15,10,29.30
2014,08,04,15,11,29.30
2014,08,04,15,12,29.20
2014,08,04,15,13,29.20
2014,08,04,15,14,29.20
2014,08,04,15,15,29.20
2014,08,04,15,16,29.20
2014,08,04,15,17,29.30
2014,08,04,15,18,29.30
2014,08,04,15,19,29.40
2014,08,04,15,20,29.50
2014,08,04,15,21,29.50
2014,08,04,15,22,29.60
2014,08,04,15,23,29.60
2014,08,04,15,24,29.50
2014,08,04,15,25,29.50
2014,08,04,15,26,29.40
2014,08,04,15,27,29.40
2014,08,04,15,28,29.50
2014,08,04,15,29,29.50
2014,08,04,15,30,29.50
2014,08,04,15,31,29.50
2014,08,04,15,32,29.60
2014,08,04,15,33,29.60
2014,08,04,15,34,29.70
2014,08,04,15,35,29.70
2014,08,04,15,36,29.70
2014,08,04,15,37,29.80
2014,08,04,15,38,29.80
2014,08,04,15,39,29.80
2014,08,04,15,40,29.80
2014,08,04,15,41,29.80
2014,08,04,15,42,29.80
2014,08,04,15,43,29.80
2014,08,04,15,44,29.70
2014,08,04,15,45,29.80
2014,08,04,15,46,29.80
2014,08,04,15,47,29.80
2014,08,04,15,48,29.80
2014,08,04,15,49,29.80
2014,08,04,15,50,29.80
2014,08,04,15,51,29.90
2014,08,04,15,52,29.90
2014,08,04,15,53,30.00
2014,08,04,15,54,30.10
2014,08,04,15,55,30.20
2014,08,04,15,56,30.20
2014,08,04,15,57,30.30
2014,08,04,15,58,30.30
2014,08,04,15,59,30.30
2014,08,04,16,00,30.30
2014,08,04,16,01,30.30
2014,08,04,16,02,30.30
2014,08,04,16,03,30.40
2014,08,04,16,04,30.40
2014,08,04,16,05,30.50
2014,08,04,16,06,30.50
2014,08,04,16,07,30.60
2014,08,04,16,08,30.60
2014,08,04,16,09,30.60
2014,08,04,16,10,30.60
2014,08,04,16,11,30.50
2014,08,04,16,12,30.50
2014,08,04,16,13,30.50
2014,08,04,16,14,30.60
2014,08,04,16,15,30.60
2014,08,04,16,16,30.70
2014,08,04,16,17,30.70
2014,08,04,16,18,30.70
2014,08,04,16,19,30.70
2014,08,04,16,20,30.70
2014,08,04,16,21,30.70
2014,08,04,16,22,30.80
2014,08,04,16,23,30.80
2014,08,04,16,24,30.90
2014,08,04,16,25,30.90
2014,08,04,16,26,30.90
2014,08,04,16,27,30.90
2014,08,04,16,28,30.90
2014,08,04,16,29,30.90
2014,08,04,16,30,30.90
2014,08,04,16,31,30.80
2014,08,04,16,32,30.80
2014,08,04,16,33,30.80
2014,08,04,16,34,30.80
2014,08,04,16,35,30.80
2014,08,04,16,36,30.80
2014,08,04,16,37,30.80
2014,08,04,16,38,30.70
2014,08,04,16,39,30.60
2014,08,04,16,40,30.50
2014,08,04,16,41,30.40
2014,08,04,16,42,30.30
2014,08,04,16,43,30.30
2014,08,04,16,44,30.20
2014,08,04,16,45,30.10
2014,08,04,16,46,30.10
2014,08,04,16,47,30.00
2014,08,04,16,48,30.00
2014,08,04,16,49,29.90
2014,08,04,16,50,29.80
2014,08,04,16,51,29.70
2014,08,04,16,52,29.70
2014,08,04,16,53,29.50
2014,08,04,16,54,29.50
2014,08,04,16,55,29.40
2014,08,04,16,56,29.30
2014,08,04,16,57,29.30
2014,08,04,16,58,29.30
2014,08,04,16,59,29.20
2014,08,04,17,00,29.10
2014,08,04,17,01,29.10
2014,08,04,17,02,29.00
2014,08,04,17,03,29.00
2014,08,04,17,04,28.90
2014,08,04,17,05,28.80
2014,08,04,17,06,28.80
2014,08,04,17,07,28.80
2014,08,04,17,08,28.70
2014,08,04,17,09,28.70
2014,08,04,17,10,28.60
2014,08,04,17,11,28.60
2014,08,04,17,12,28.50
2014,08,04,17,13,28.50
2014,08,04,17,14,28.40
2014,08,04,17,15,28.40
2014,08,04,17,16,28.40
2014,08,04,17,17,28.40
2014,08,04,17,18,28.30
2014,08,04,17,19,28.30